Details for Norwegian Air Shuttle at KJFK




Go Back


Latest METAR
Local Time

KJFK 181351Z 20010KT 7SM -RA FEW008 SCT018TCU BKN028 BKN250 25/25 A2978 RMK AO2 RAB10 SLP083 SCT V BKN TCU W P0000 T02500250
18/09/2018, 10:12:09

Description
Results
Norwegian Air Shuttle Logo
Number of Pilots based at KJFK
2 Pilots Based here
Number of Norwegian Air Shuttle Flights Departed from KJFK
0 Flights Departed
Number of Norwegian Air Shuttle Flights Arrived at KJFK
0 Flights Arrived
Number of Norwegian Air Shuttle Schedules Departing from KJFK
9 Schedules
Number of Norwegian Air Shuttle Schedules Arriving at KJFK
11 Schedules
Number of Norwegian Air Shuttle Schedules Departing from KJFK availible today
2 Schedules Today
Number of Norwegian Air Shuttle Schedules Arriving at KJFK availible today
3 Schedules Today
Average Landing Rate at KJFK
-216 fpm
Norwegian Air Shuttle Average Landing Rate at KJFK
0 fpm
Total Fuel Purchased at KJFK by Norwegian Air Shuttle
0.00 kgs / 0.00 lbs

Pilots Based at KJFK


Pilot ID
Pilot Name
Pilot Rank
No. of Flights
No. of Flying Hours
Jonathan Cox
0
0
Jonathan Mcrea
7
11.18
Content